Notices

What's New in latest Release from April 7th, 2021:

- Updated Glossary, including Speed of Maximum Gust, and Total Hourly Precipitation

- Updated national and regional climate services offices contacts and prices information

- Addition of station inventory lists for 1981-2010, 1971-2000, and 1961-1990 Normals.

Please note that as of June 10, 2021 UTC dates are available for all years 2004-present, and DBA is working on populating the remaining years (2003 to 1953).

If you haven't already, please take our survey and provide feedback about our website: https://eccc.sondage-survey.ca/f/LanguageSelection.aspx?s=442ca660-fcf1-47c0-95a9-59707d6fd709

Hourly Data Report for April 30, 2017

KUGAARUK CLIMATE
NUNAVUT

68°32'15.060" N
89°47'47.020" W
15.80 m
2303094
71407
NBB

Download Data

Hourly Data (April 2017)
Hourly Data Report for April 30, 2017
TIME
LST
Temp Definition
°C
Dew Point Definition
°C
Rel Hum Definition
%
Precip. Amount Definition
mm

Wind Dir Definition
10's deg

Wind Spd Definition
km/h
Visibility Definition
km
Stn Press Definition
kPa
Hmdx Definition


Wind Chill Definition


Weather Definition


00:00 -15.9 -18.6 80 0.0 30 24   101.57   -26 LegendNANA
01:00 -15.9 -18.9 78 0.0 31 26   101.59   -27 LegendNANA
02:00 -15.9 -18.9 77 0.0 31 25   101.63   -26 LegendNANA
03:00 -15.8 -18.8 77 0.0 32 26   101.65   -26 LegendNANA
04:00 -15.7 -18.8 77 0.0 32 22   101.69   -25 LegendNANA
05:00 -15.5 -18.7 76 0.0 32 25   101.68   -26 LegendNANA
06:00 -15.2 -18.6 75 0.0 32 22   101.73   -25 LegendNANA
07:00 -15.1 -19.0 72 0.0 31 23   101.72   -25 LegendNANA
08:00 -15.1 -19.3 71 0.0 31 21   101.76   -25 LegendNANA
09:00 -15.4 -19.7 69 0.0 31 22   101.75   -25 LegendNANA
10:00 -15.1 -20.2 65 0.0 30 19   101.78   -24 LegendNANA
11:00 -14.1 -19.6 63 0.0 30 14   101.79   -22 LegendNANA
12:00 -14.8 -19.9 65 0.0 28 25   101.77   -25 LegendNANA
13:00 -16.0 -21.1 65 0.0 27 23   101.83   -26 LegendNANA
14:00 -16.6 -22.0 63 0.0 27 22   101.82   -27 LegendNANA
15:00 -16.3 -22.5 58 0.0 27 12   101.82   -24 LegendNANA
16:00 -15.6 -21.3 61 0.0 28 12   101.79   -23 LegendNANA
17:00 -16.1 -20.8 67 0.0 29 19   101.82   -25 LegendNANA
18:00 -16.7 -21.0 69 0.0 27 17   101.82   -26 LegendNANA
19:00 -17.9 -21.2 75 0.0 26 17   101.79   -27 LegendNANA
20:00 -17.6 -20.0 82 0.0 27 21   101.76   -28 LegendNANA
21:00 -16.9 -19.1 83 0.0 28 18   101.72   -26 LegendNANA
22:00 -16.8 -19.1 83 0.0 27 23   101.70   -27 LegendNANA
23:00 -17.4 -19.9 81 0.0 28 19   101.68   -27 LegendNANA

Notes on Data Quality.

Legend

  • E = Estimated
  • M = Missing
  • NA = Not Available*
  • [empty] = Indicates an unobserved value
Date modified: